Wind_Speed
28 26 28 24 21 19 16 11 12 15 22 22 23 25 25 26 27 26 24 24 25 28 29 32 31 27 28 30 30 30 29 27 27 26 27 29 29 23 22 23 22 21 20 20
29 32 28 22 21 25 25 18 14 17 17 21 23 28 30 29 30 28 26 26 26 28 33 34 32 27 30 31 32 32 31 30 30 29 30 31 28 24 23 22 21 20 20 19
22 20 30 24 25 25 23 22 18 19 14 14 20 30 32 33 33 33 31 25 23 25 29 28 29 27 30 31 33 32 32 31 31 31 32 31 25 24 22 20 18 17 16 15
21 17 21 29 29 26 21 20 20 21 15 6 9 7 11 10 13 16 21 22 22 22 25 27 24 28 31 31 32 32 32 32 32 33 30 25 22 20 18 17 15 13 13 14
21 19 23 21 27 23 17 16 16 17 14 14 15 10 12 15 23 22 21 18 20 19 20 30 24 27 24 27 30 32 33 32 30 28 24 20 20 17 15 13 11 12 14 14
21 19 20 21 20 22 19 16 10 7 6 4 17 16 8 17 17 20 19 20 24 21 21 26 24 22 20 22 27 29 30 28 25 22 19 18 16 13 11 10 11 13 14 16
15 19 22 23 27 22 20 19 5 1 2 5 9 16 17 12 16 20 20 20 20 19 17 18 18 19 21 21 21 25 25 23 20 18 17 14 11 10 9 11 13 15 17 20
20 10 24 21 26 22 25 22 9 7 5 5 13 11 10 16 25 22 21 18 16 17 17 17 18 17 18 19 20 21 20 19 17 15 13 11 9 9 11 13 16 19 21 24
15 6 21 16 26 19 25 23 15 4 2 2 7 7 9 14 16 20 23 20 16 15 16 15 15 14 15 16 17 17 17 16 15 12 11 9 9 11 13 15 17 20 24 28
11 10 15 21 24 24 20 25 12 8 4 3 7 13 10 9 17 13 13 16 19 19 16 13 11 10 10 10 12 13 14 14 12 12 11 11 11 12 15 17 20 25 28 28
19 9 14 20 22 27 22 21 12 11 6 4 2 4 9 10 13 12 16 17 18 15 12 9 7 7 7 7 8 11 11 12 13 12 11 11 13 15 18 22 27 26 24 24
23 11 13 24 20 21 26 17 22 9 6 10 3 6 7 3 6 8 14 15 12 9 9 11 10 6 6 6 8 9 11 12 13 13 12 14 17 21 24 26 24 23 21 22
25 12 12 9 13 25 24 24 21 15 7 13 8 4 7 8 7 14 17 16 13 10 10 15 11 9 9 10 11 12 13 14 13 13 16 19 23 25 25 22 21 21 22 25
23 19 18 17 13 24 32 32 29 27 19 13 29 19 17 15 13 16 20 18 14 16 13 17 15 13 13 13 14 14 13 12 14 18 21 24 25 25 22 20 21 24 27 31
26 24 22 16 12 11 15 21 30 36 35 25 23 25 21 22 24 22 20 21 21 21 22 17 16 16 15 13 13 13 13 16 19 22 24 24 23 23 22 23 25 29 33 36
32 17 29 25 25 22 22 25 29 31 33 40 39 36 27 25 21 27 26 27 27 24 20 19 18 18 17 16 14 16 19 24 25 24 23 23 23 24 25 28 31 34 37 40
34 29 20 15 22 23 29 35 34 34 35 36 41 40 33 31 30 28 32 26 23 21 21 21 18 17 19 19 19 21 22 24 22 20 21 22 23 24 27 31 34 37 40 42
30 31 19 8 11 5 18 24 28 31 38 43 46 40 34 31 30 28 28 29 24 21 20 21 22 18 21 23 24 25 27 25 21 22 23 24 26 28 32 36 39 41 43 45
31 34 15 10 16 15 15 18 20 25 26 22 23 19 21 26 32 37 34 32 28 22 22 21 22 24 25 26 27 28 28 23 22 24 26 28 30 33 36 38 40 43 44 46
29 25 23 17 7 8 4 9 16 15 24 12 16 14 14 14 26 20 23 25 23 21 23 26 27 27 30 30 31 31 26 26 25 27 29 33 35 37 39 41 43 45 46 46
32 27 32 20 13 12 19 7 8 9 3 4 4 7 13 20 18 17 15 12 13 20 21 19 20 24 27 29 30 29 28 25 25 28 32 35 37 40 42 43 44 46 45 44
35 22 21 23 17 16 12 14 23 12 8 7 9 10 10 8 12 16 15 13 14 14 16 16 16 19 22 24 26 25 25 25 28 31 35 39 41 43 43 45 45 44 45 45
30 40 26 26 17 17 12 9 7 7 6 7 9 12 13 12 11 12 14 14 12 13 14 17 18 20 21 22 24 27 27 29 32 36 38 41 43 44 46 47 47 47 48 44
31 35 31 31 34 26 19 9 7 7 12 15 17 19 15 11 8 9 11 13 16 19 20 20 20 21 23 26 29 31 32 33 34 35 38 42 44 46 48 49 47 49 48 43
30 34 37 40 35 22 19 18 22 16 18 19 21 23 20 18 14 12 16 19 22 25 27 29 31 33 34 34 33 32 31 32 35 39 41 41 44 46 48 47 47 48 45 43
28 32 31 35 29 25 25 21 16 17 18 21 27 25 24 22 22 23 24 24 26 28 29 30 32 34 35 35 33 33 36 39 40 41 41 43 45 47 47 48 48 46 45 45
Wind_Direction
212 211 209 206 209 185 197 202 214 236 246 259 262 262 257 261 260 259 260 258 259 262 264 262 262 257 254 254 256 259 265 270 276 284 289 292 292 291 290 288 289 289 287 286
214 220 222 227 226 222 225 226 210 232 243 252 262 265 266 263 267 270 267 262 258 256 256 261 262 254 250 250 252 255 259 265 271 279 286 293 296 288 289 287 286 285 285 288
221 226 221 208 203 218 224 227 223 234 249 264 277 280 272 268 268 268 267 266 256 249 254 254 261 260 253 251 252 256 259 263 268 276 283 289 289 291 290 286 286 287 291 297
211 215 208 206 211 219 220 219 206 230 241 248 262 283 265 274 267 263 253 248 247 246 251 258 257 256 257 256 253 255 259 262 267 275 279 283 288 289 283 281 283 291 298 304
203 208 214 213 219 210 205 212 220 234 246 247 257 264 278 266 261 262 261 254 244 243 251 260 266 267 266 262 257 255 257 262 268 271 275 280 283 278 277 279 288 298 300 297
213 206 202 208 190 199 199 191 189 206 197 256 248 223 242 243 258 256 259 245 245 244 253 259 270 278 265 258 255 255 256 260 263 266 270 277 273 271 272 281 291 297 298 301
185 198 197 191 184 188 196 177 107 87 191 222 193 210 231 223 228 253 257 260 250 249 253 268 272 267 265 260 256 251 252 255 257 259 272 271 261 260 272 287 292 296 298 300
176 186 195 197 197 193 189 182 174 188 187 188 188 226 248 236 240 246 247 246 248 259 266 272 274 272 264 259 258 250 247 247 249 262 260 248 250 267 278 287 293 299 302 303
164 161 189 190 196 198 186 200 199 141 125 116 212 244 247 237 244 243 246 252 255 263 273 274 271 272 267 260 255 245 238 240 250 248 233 237 254 271 285 295 301 302 302 302
175 148 186 188 190 198 196 202 190 183 136 227 233 222 227 232 239 242 247 261 265 272 272 273 275 273 268 260 243 229 229 235 228 221 228 248 269 285 295 297 296 298 299 302
171 184 170 187 195 195 188 193 198 199 205 177 174 238 210 241 243 247 253 260 266 266 268 274 283 270 255 238 219 214 214 213 217 227 245 264 281 290 289 288 291 293 300 307
173 167 162 191 204 196 215 212 198 188 194 216 200 227 169 202 245 248 256 261 247 257 282 293 279 267 244 227 213 207 212 220 230 242 257 272 280 284 287 291 294 299 306 316
192 195 126 172 209 207 212 203 211 202 220 211 186 213 220 249 271 254 253 248 264 270 271 271 277 263 240 230 224 221 224 229 239 251 267 275 278 284 289 290 296 304 312 320
198 219 216 193 220 220 213 214 214 212 224 216 228 234 250 260 269 258 252 259 262 258 264 276 268 255 243 233 230 230 233 241 256 269 275 277 278 281 285 289 296 307 315 319
198 214 210 206 233 221 229 233 232 227 230 229 247 251 267 272 266 255 248 253 253 258 277 262 258 254 245 240 234 230 243 262 274 281 283 280 280 283 287 297 306 311 316 319
204 216 223 240 244 243 236 238 242 244 246 250 255 256 257 262 249 259 255 249 259 267 273 252 254 250 247 243 235 246 263 274 284 286 280 280 281 289 295 300 307 312 314 316
202 206 199 213 225 234 248 235 236 245 249 252 251 262 263 259 253 244 260 269 264 267 260 250 251 254 251 243 252 269 285 297 288 281 284 286 288 292 297 302 307 310 312 314
203 205 199 187 195 240 247 252 251 254 257 257 260 260 261 262 267 263 260 267 263 254 240 239 242 249 252 261 268 282 288 294 287 288 290 290 291 294 299 305 308 309 311 313
212 206 199 195 206 256 243 242 253 257 266 255 257 255 254 252 256 255 260 261 262 251 239 233 241 249 256 265 273 282 290 285 286 293 293 289 291 296 299 303 305 307 310 311
197 216 211 193 189 217 236 240 244 252 267 250 236 237 231 230 238 256 250 255 257 247 244 237 231 236 252 261 266 275 279 283 287 288 284 287 291 293 298 303 304 307 308 310
198 198 211 209 217 247 240 210 190 194 242 209 236 234 233 244 257 258 260 245 239 233 245 245 249 252 257 260 265 268 276 282 281 279 282 287 290 295 298 299 301 303 307 309
194 194 198 204 220 253 230 225 223 228 230 270 252 255 252 266 242 244 254 254 247 245 244 251 259 258 256 256 260 268 274 277 280 282 285 286 288 290 294 296 298 304 308 306
201 204 200 209 230 235 220 209 205 209 223 252 270 270 265 264 251 247 253 260 251 249 257 263 255 253 258 265 271 274 278 279 282 283 282 282 287 293 295 299 303 303 303 301
208 214 216 223 236 239 238 198 180 242 245 255 263 256 249 244 253 255 259 260 261 262 260 258 260 267 277 280 280 282 283 282 280 278 281 287 292 295 296 298 298 300 299 297
222 219 225 231 238 245 258 259 239 251 252 253 255 251 243 250 257 264 268 269 268 268 270 272 277 281 287 289 289 286 281 278 279 282 285 289 290 291 292 292 293 296 296 295
226 230 229 243 258 264 263 259 248 238 239 246 248 244 250 253 262 269 278 276 277 277 278 281 281 281 281 281 280 278 279 280 282 284 286 286 287 288 289 291 294 294 294 297
Height
3097 3101 3102 3109 3115 3121 3124 3127 3131 3131 3132 3135 3137 3138 3140 3141 3142 3146 3148 3149 3151 3152 3152 3150 3153 3156 3157 3158 3160 3162 3163 3164 3164 3163 3163 3162 3160 3161 3159 3157 3157 3155 3154 3153
3092 3093 3103 3109 3113 3117 3121 3124 3127 3127 3129 3132 3133 3131 3133 3135 3136 3139 3141 3143 3145 3146 3143 3144 3146 3149 3150 3152 3154 3155 3157 3158 3158 3158 3157 3157 3156 3155 3155 3153 3152 3151 3150 3149
3088 3093 3099 3103 3106 3111 3116 3120 3124 3124 3126 3129 3127 3124 3127 3129 3129 3130 3133 3135 3137 3138 3136 3139 3140 3142 3143 3146 3148 3150 3152 3153 3154 3153 3153 3152 3152 3151 3150 3149 3148 3147 3147 3146
3087 3089 3092 3098 3103 3109 3112 3115 3117 3120 3124 3127 3127 3124 3123 3122 3123 3124 3125 3127 3130 3132 3132 3131 3135 3136 3137 3139 3142 3145 3146 3147 3148 3148 3148 3148 3148 3146 3145 3145 3145 3145 3144 3143
3081 3084 3090 3094 3099 3106 3107 3110 3115 3118 3121 3123 3124 3126 3115 3117 3118 3120 3121 3122 3123 3126 3128 3123 3130 3129 3132 3134 3135 3137 3139 3140 3142 3142 3142 3143 3142 3142 3142 3143 3143 3143 3142 3140
3076 3081 3085 3090 3097 3101 3102 3106 3113 3117 3119 3120 3117 3121 3112 3112 3115 3113 3115 3117 3119 3121 3122 3121 3123 3124 3126 3127 3128 3130 3132 3134 3136 3137 3138 3138 3139 3139 3139 3140 3140 3140 3139 3137
3074 3078 3081 3086 3091 3097 3099 3104 3113 3120 3119 3115 3112 3115 3107 3109 3111 3110 3111 3113 3115 3117 3117 3117 3119 3119 3120 3121 3122 3124 3126 3129 3131 3133 3134 3134 3135 3136 3137 3137 3136 3136 3136 3134
3068 3077 3077 3081 3087 3089 3095 3100 3100 3107 3109 3106 3108 3104 3101 3104 3106 3107 3108 3109 3111 3113 3113 3114 3114 3114 3115 3116 3117 3119 3122 3124 3127 3129 3130 3131 3132 3134 3134 3133 3133 3132 3132 3130
3065 3072 3074 3079 3083 3090 3092 3094 3098 3099 3101 3102 3100 3099 3100 3100 3101 3102 3104 3106 3107 3108 3109 3110 3110 3110 3110 3111 3113 3115 3118 3121 3123 3125 3127 3128 3129 3130 3131 3130 3129 3128 3126 3124
3061 3069 3073 3076 3082 3085 3086 3092 3096 3097 3104 3105 3093 3094 3094 3096 3098 3100 3102 3103 3104 3104 3105 3106 3106 3106 3107 3108 3109 3111 3114 3117 3119 3122 3124 3125 3126 3127 3127 3126 3124 3122 3120 3118
3059 3063 3073 3076 3076 3078 3084 3085 3090 3092 3093 3093 3094 3090 3090 3093 3096 3098 3100 3101 3100 3101 3101 3102 3103 3104 3105 3106 3107 3109 3112 3115 3117 3120 3121 3122 3123 3123 3122 3121 3119 3116 3114 3112
3055 3060 3067 3070 3073 3075 3079 3082 3085 3085 3087 3088 3088 3088 3089 3092 3095 3096 3098 3098 3098 3098 3099 3099 3100 3102 3103 3104 3105 3108 3110 3113 3115 3117 3118 3119 3119 3117 3116 3115 3113 3111 3109 3107
3053 3058 3064 3070 3073 3072 3073 3079 3081 3083 3081 3081 3086 3085 3086 3089 3092 3093 3094 3095 3095 3096 3097 3097 3098 3099 3100 3102 3104 3106 3108 3110 3112 3113 3114 3113 3113 3112 3111 3110 3108 3106 3104 3101
3051 3052 3055 3058 3060 3064 3069 3073 3076 3077 3076 3076 3074 3079 3083 3085 3087 3089 3090 3091 3092 3093 3094 3095 3095 3096 3097 3099 3101 3103 3105 3107 3108 3109 3109 3109 3108 3107 3106 3104 3102 3100 3098 3095
3046 3047 3052 3055 3059 3061 3064 3066 3069 3069 3071 3070 3072 3074 3078 3080 3082 3083 3085 3086 3087 3089 3090 3091 3091 3092 3093 3095 3098 3100 3102 3103 3103 3104 3104 3103 3102 3101 3100 3098 3096 3094 3091 3088
3042 3045 3049 3053 3056 3058 3058 3059 3061 3061 3063 3062 3066 3065 3073 3076 3076 3077 3079 3080 3081 3083 3084 3085 3087 3089 3090 3092 3094 3096 3098 3098 3098 3098 3097 3097 3096 3095 3094 3092 3090 3087 3084 3081
3039 3042 3046 3050 3052 3054 3050 3049 3054 3055 3055 3057 3055 3060 3066 3068 3070 3071 3071 3074 3075 3076 3077 3079 3082 3085 3086 3088 3090 3091 3091 3092 3091 3091 3091 3091 3089 3088 3087 3085 3082 3079 3076 3072
3033 3039 3045 3046 3050 3049 3041 3042 3045 3044 3045 3049 3049 3052 3056 3058 3061 3063 3065 3065 3068 3070 3071 3073 3077 3080 3082 3083 3084 3085 3085 3086 3085 3085 3084 3083 3082 3081 3079 3077 3074 3070 3067 3063
3031 3036 3039 3042 3044 3038 3034 3035 3040 3039 3037 3040 3040 3043 3046 3050 3053 3053 3056 3058 3060 3064 3065 3067 3071 3074 3076 3077 3078 3079 3079 3078 3078 3078 3077 3076 3075 3074 3071 3069 3065 3061 3057 3053
3027 3032 3038 3037 3037 3036 3029 3030 3033 3036 3031 3033 3035 3038 3041 3044 3042 3046 3049 3051 3054 3056 3058 3061 3064 3067 3069 3072 3072 3072 3072 3071 3072 3071 3069 3068 3068 3065 3062 3059 3056 3052 3049 3045
3020 3025 3028 3031 3030 3025 3024 3029 3031 3034 3035 3030 3032 3034 3036 3037 3041 3043 3044 3046 3047 3049 3052 3054 3057 3061 3064 3065 3065 3065 3065 3066 3065 3063 3061 3060 3058 3056 3054 3050 3047 3043 3039 3035
3011 3017 3020 3025 3028 3021 3018 3023 3028 3029 3028 3030 3031 3032 3033 3034 3036 3038 3039 3041 3043 3046 3048 3051 3053 3054 3056 3057 3057 3058 3058 3058 3057 3055 3054 3052 3050 3047 3044 3041 3037 3033 3030 3027
3008 3006 3009 3016 3013 3013 3016 3020 3022 3026 3027 3027 3028 3030 3030 3031 3033 3036 3037 3039 3041 3044 3046 3046 3047 3049 3050 3051 3052 3051 3050 3049 3048 3046 3044 3042 3039 3037 3034 3030 3027 3024 3020 3017
3002 3001 3005 3011 3008 3011 3017 3020 3022 3024 3025 3025 3025 3026 3027 3028 3031 3034 3036 3038 3039 3040 3041 3041 3042 3043 3043 3043 3042 3041 3040 3039 3037 3036 3034 3032 3029 3026 3023 3019 3017 3013 3011 3007
2995 2995 2997 3001 3003 3007 3012 3015 3019 3019 3019 3020 3022 3022 3024 3025 3028 3031 3033 3034 3035 3035 3034 3034 3034 3034 3033 3032 3031 3030 3029 3027 3026 3025 3022 3020 3017 3014 3011 3008 3006 3003 3001 2998
2987 2989 2993 2994 3002 3004 3006 3010 3012 3012 3013 3014 3016 3017 3018 3020 3022 3025 3027 3027 3027 3027 3026 3026 3025 3024 3024 3022 3021 3020 3019 3017 3015 3013 3011 3009 3006 3003 3000 2997 2995 2992 2990 2987